"TOA5","AWS1","CR1000","7964","CR1000.Std.14","CPU:AWS1_114.CR1","64363","TBL110"
"TIMESTAMP","RECORD","Wind_spd_WVc(1)","Wind_spd_WVc(2)","Air_Temp_Avg","Humidity_Avg","SW_upper_Wm2_Avg","Rain_Tot","Press_Avg","Issui_Tot","Depth_cm","SR50A_Raw","Quality","Ground_Temp_Avg(1)","Ground_Temp_Avg(2)","SW_lower_Wm2_Avg","Albedo_Avg","SWC_per(1)","SWC_per(2)","Period(1)","Period(2)"
"TS","RN","","","","","","","","","","","","","","","","","","",""
"","","WVc","WVc","Avg","Avg","Avg","Tot","Avg","Tot","Smp","Smp","Smp","Avg","Avg","Avg","Avg","Smp","Smp","Smp","Smp"
"2016-03-14 00:00:00",226573,0,0,-0.721,100,0,0,864.4937,0,15.1,3.034,178,0.554,1.107,0.2047367,0,52.32,60.8,33.87,35.86
"2016-03-14 00:10:00",226574,0.025,327.4,-0.953,100,0,0,864.5258,0,15.53,3.03,191,0.545,1.101,0,0,52.32,60.8,33.87,35.86
"2016-03-14 00:20:00",226575,0.019,18.17,-1.026,100,0,0,864.1331,0,15.58,3.03,192,0.529,1.085,0,0,52.32,60.8,33.87,35.86
"2016-03-14 00:30:00",226576,0,0,-1.025,100,0,0,864.0688,0,15.46,3.031,181,0.543,1.083,0.007582212,0,52.32,60.8,33.87,35.86
"2016-03-14 00:40:00",226577,0.018,342.7,-1.079,100,0,0,863.9666,0,15.68,3.029,192,0.552,1.095,0.07961516,0,52.32,60.8,33.87,35.86
"2016-03-14 00:50:00",226578,0,0,-0.965,100,0,0,863.9619,0,15.83,3.027,192,0.539,1.102,0.2274714,0,52.32,60.8,33.87,35.86
"2016-03-14 01:00:00",226579,0,0,-0.904,100,0,0,863.9306,0,15.84,3.027,191,0.538,1.088,0.2274645,0,52.32,60.8,33.87,35.86
"2016-03-14 01:10:00",226580,0,0,-0.895,100,0,0,863.9597,0,15.88,3.026,192,0.536,1.083,0.2274602,0,52.38,60.8,33.88,35.86
"2016-03-14 01:20:00",226581,0,0,-0.882,100,0,0,863.8663,0,15.73,3.028,173,0.56,1.089,0.2274701,0,52.32,60.8,33.87,35.86
"2016-03-14 01:30:00",226582,0,0,-0.859,100,0,0,863.8071,0,15.88,3.026,177,0.549,1.095,0.2274742,0,52.32,60.8,33.87,35.86
"2016-03-14 01:40:00",226583,0,0,-0.898,100,0,0,863.7059,0.5,16,3.025,172,0.552,1.095,0.2274739,0,52.32,60.8,33.87,35.86
"2016-03-14 01:50:00",226584,0,0,-0.947,100,0,0,863.6743,0,16.48,3.021,189,0.552,1.091,0.1554386,0,52.32,60.8,33.87,35.86
"2016-03-14 02:00:00",226585,0,0,-1.008,100,0,0,863.4699,0,16.67,3.019,177,0.544,1.091,0.1061524,0,52.32,60.8,33.87,35.86
"2016-03-14 02:10:00",226586,0,0,-1.039,100,0,0,863.4636,0,16.82,3.018,189,0.542,1.097,0.06065997,0,52.32,60.74,33.87,35.85
"2016-03-14 02:20:00",226587,0,0,-1.039,100,0,0,863.2277,0.5,16.88,3.017,192,0.53,1.09,0.05307421,0,52.32,60.8,33.87,35.86
"2016-03-14 02:30:00",226588,0,0,-1.033,100,0,0,863.2024,0,17.05,3.015,193,0.528,1.085,0.05307436,0,52.32,60.74,33.87,35.85
"2016-03-14 02:40:00",226589,0,0,-1.076,100,0,0,863.1927,0,17.27,3.014,194,0.536,1.09,0,0,52.32,60.74,33.87,35.85
"2016-03-14 02:50:00",226590,0,0,-1.359,100,0,0,862.9891,0.5,17.39,3.014,186,0.535,1.085,0,0,52.32,60.74,33.87,35.85
"2016-03-14 03:00:00",226591,0,0,-1.54,100,0,0,863.0008,0,17.54,3.014,194,0.529,1.092,0,0,52.32,60.74,33.87,35.85
"2016-03-14 03:10:00",226592,0,0,-1.679,100,0,0,862.951,0,17.34,3.016,192,0.548,1.091,0,0,52.27,60.74,33.85,35.85
"2016-03-14 03:20:00",226593,0,0,-1.659,100,0,0,862.9545,0.5,17.46,3.014,194,0.554,1.086,0,0,52.27,60.74,33.85,35.85
"2016-03-14 03:30:00",226594,0,0,-1.519,100,0,0,862.9349,0,17.71,3.011,190,0.56,1.072,0,0,52.27,60.74,33.85,35.85
"2016-03-14 03:40:00",226595,0,0,-1.474,100,0,0,862.942,0,16.74,3.021,202,0.568,1.091,0.1175281,0,52.27,60.74,33.85,35.85
"2016-03-14 03:50:00",226596,0,0,-1.527,100,0,0,862.7066,0.5,17.76,3.011,194,0.559,1.062,0.003791201,0,52.27,60.74,33.85,35.85
"2016-03-14 04:00:00",226597,0,0,-1.534,100,0,0,862.7537,0,18.36,3.005,181,0.554,1.065,0.04549273,0,52.27,60.74,33.85,35.85
"2016-03-14 04:10:00",226598,0,0,-1.54,100,0,0,862.7119,0,19.08,2.998,189,0.568,1.074,0,0,52.27,60.74,33.85,35.85
"2016-03-14 04:20:00",226599,0,0,-1.628,100,0,0,862.5274,0.5,19.17,2.997,190,0.574,1.102,0,0,52.27,60.74,33.85,35.85
"2016-03-14 04:30:00",226600,0,0,-1.537,100,0,0,862.3425,0,19.22,2.996,185,0.584,1.097,0.07203671,0,52.27,60.74,33.85,35.85
"2016-03-14 04:40:00",226601,0,0,-1.622,100,0.003932266,0,862.2353,0,19.42,2.995,181,0.585,1.077,0.08341145,0,52.27,60.74,33.85,35.85
"2016-03-14 04:50:00",226602,0,0,-1.744,100,0,0,862.1812,0.5,19.74,2.992,194,0.586,1.091,0.003791434,0,52.27,60.74,33.85,35.85
"2016-03-14 05:00:00",226603,0,0,-1.584,100,0,0,862.2296,0,19.77,2.991,193,0.589,1.082,0.2123213,0,52.27,60.68,33.85,35.83
"2016-03-14 05:10:00",226604,0,0,-1.604,100,0,0,862.2227,0,19.79,2.991,190,0.59,1.072,0.03033173,0,52.27,60.74,33.85,35.85
"2016-03-14 05:20:00",226605,0,0,-1.595,100,0,0,862.2173,0.5,19.19,2.997,199,0.595,1.074,0,0,52.27,60.68,33.85,35.83
"2016-03-14 05:30:00",226606,0,0,-1.615,100,0,0,862.2537,0,19.94,2.989,177,0.596,1.072,0,0,52.27,60.68,33.85,35.83
"2016-03-14 05:40:00",226607,0,0,-1.647,100,0,0,862.2753,0,20.51,2.984,194,0.592,1.071,0.003791572,0,52.27,60.68,33.85,35.83
"2016-03-14 05:50:00",226608,0,0,-1.643,100,0,0,862.2026,0.5,20.63,2.983,185,0.601,1.08,0.1099579,0,52.27,60.74,33.85,35.85
"2016-03-14 06:00:00",226609,0,0,-1.663,100,0,0,862.1328,0,20.71,2.982,190,0.602,1.081,0.2274971,0,52.27,60.74,33.85,35.85
"2016-03-14 06:10:00",226610,0,0,-1.625,100,0.1140357,0,862.2155,0,20.92,2.979,185,0.587,1.066,0.527013,1.398,52.27,60.74,33.85,35.85
"2016-03-14 06:20:00",226611,0,0,-1.524,100,0.4325561,0,862.222,0.5,21.04,2.978,189,0.585,1.068,1.672054,4.267,52.27,60.68,33.85,35.83
"2016-03-14 06:30:00",226612,0,0,-1.636,100,1.11681,0,862.1778,0,21.22,2.978,190,0.59,1.075,3.260781,3.041,52.27,60.68,33.85,35.83
"2016-03-14 06:40:00",226613,0,0,-1.927,100,1.860058,0,862.1735,0.5,21.77,2.973,192,0.601,1.079,4.629602,2.486,52.27,60.74,33.85,35.85
"2016-03-14 06:50:00",226614,0,0,-1.912,100,2.335837,0,862.1797,0,21.49,2.976,211,0.597,1.08,6.570786,2.819,52.27,60.74,33.85,35.85
"2016-03-14 07:00:00",226615,0,0,-2.072,100,3.448637,0,862.2214,0,21.27,2.979,190,0.585,1.068,8.955512,2.595,52.27,60.74,33.85,35.85
"2016-03-14 07:10:00",226616,0,0,-2.066,100,4.431626,0,862.238,0.5,22.22,2.969,172,0.581,1.063,12.56856,2.833,52.27,60.74,33.85,35.85
"2016-03-14 07:20:00",226617,0,0,-1.98,100,5.66236,0,862.1852,0,22.57,2.965,179,0.574,1.063,17.26975,3.048,52.27,60.74,33.85,35.85
"2016-03-14 07:30:00",226618,0,0,-1.912,100,6.122416,0,862.2156,0,22.75,2.963,175,0.561,1.061,19.50663,3.187,52.21,60.74,33.84,35.85
"2016-03-14 07:40:00",226619,0,0,-1.922,100,7.553812,0,862.216,0.5,22.87,2.962,189,0.577,1.068,23.45749,3.107,52.27,60.68,33.85,35.83
"2016-03-14 07:50:00",226620,0,0,-1.858,100,8.934073,0,862.0836,0,23.41,2.955,187,0.603,1.068,28.14005,3.149,52.21,60.68,33.84,35.83
"2016-03-14 08:00:00",226621,0,0,-1.585,100,10.04658,0,861.9754,0,23.61,2.953,171,0.611,1.074,31.98733,3.185,52.21,60.68,33.84,35.83
"2016-03-14 08:10:00",226622,0,0,-1.625,100,11.37534,0,862.1936,0.5,23.86,2.95,170,0.61,1.077,35.58058,3.128,52.21,60.68,33.84,35.83
"2016-03-14 08:20:00",226623,0,0,-1.59,99.9,12.47228,0,862.1994,0,24.02,2.948,170,0.612,1.062,39.38285,3.158,52.27,60.68,33.85,35.83
"2016-03-14 08:30:00",226624,0,0,-1.531,99.8,12.85356,0,862.1256,0.5,24.32,2.945,170,0.612,1.064,41.2667,3.212,52.21,60.68,33.84,35.83
"2016-03-14 08:40:00",226625,0,0,-1.403,99.9,14.43812,0,862.0225,0,24.4,2.943,171,0.612,1.082,45.81982,3.173,52.21,60.68,33.84,35.83
"2016-03-14 08:50:00",226626,0,0,-1.323,100,15.55842,0,861.9382,0,24.7,2.94,174,0.603,1.082,49.15507,3.159,52.27,60.68,33.85,35.83
"2016-03-14 09:00:00",226627,0,0,-1.211,100,17.72456,0,861.9366,0.5,24.94,2.937,184,0.583,1.078,56.56938,3.192,52.21,60.68,33.84,35.83
"2016-03-14 09:10:00",226628,0,0,-1.241,100,19.00979,0,861.7192,0,25.09,2.936,171,0.558,1.071,59.6917,3.14,52.21,60.68,33.84,35.83
"2016-03-14 09:20:00",226629,0,0,-1.176,100,19.71725,0,861.5822,0.5,25.39,2.933,191,0.558,1.068,62.41277,3.164,52.21,60.68,33.84,35.83
"2016-03-14 09:30:00",226630,0,0,-1.107,100,21.25443,0,861.4305,0,25.1,2.934,193,0.562,1.065,67.3368,3.167,52.21,60.68,33.84,35.83
"2016-03-14 09:40:00",226631,0,0,-1.101,100,23.48363,0,861.4305,0,25.55,2.93,194,0.574,1.038,76.62804,3.263,52.21,60.68,33.84,35.83
"2016-03-14 09:50:00",226632,0,0,-1.14,100,22.87422,0,861.4326,0,25.64,2.93,171,0.596,1.024,74.16396,3.241,52.21,60.68,33.84,35.83
"2016-03-14 10:00:00",226633,0,0,-1.374,100,20.97131,0,861.462,0.5,25.73,2.931,176,0.575,1.024,66.75667,3.183,52.21,60.62,33.84,35.82
"2016-03-14 10:10:00",226634,0,0,-1.617,100,24.85183,0,861.4178,0,25.93,2.928,171,0.608,1.03,80.67663,3.242,52.21,60.68,33.84,35.83
"2016-03-14 10:20:00",226635,0,0,-1.283,100,25.01303,0,861.4241,0.5,26.09,2.926,190,0.623,1.024,81.73048,3.267,52.21,60.68,33.84,35.83
"2016-03-14 10:30:00",226636,0,0,-1.338,100,22.62653,0,861.4537,0,26.09,2.926,178,0.598,1.024,73.46645,3.246,52.21,60.68,33.84,35.83
"2016-03-14 10:40:00",226637,0,0,-1.428,100,23.6173,0,861.165,0,27.81,2.908,388,0.583,1.024,77.46958,3.279,52.21,60.62,33.84,35.82
"2016-03-14 10:50:00",226638,0.114,282.2,-0.95,99.9,23.69593,0,860.8848,0,26.12,2.924,217,0.6,1.024,78.15952,3.299,52.21,60.68,33.84,35.83
"2016-03-14 11:00:00",226639,0.328,307.9,-0.928,97.7,26.79799,0,860.6719,0.5,24.55,2.94,229,0.605,1.039,89.48275,3.338,52.21,60.62,33.84,35.82
"2016-03-14 11:10:00",226640,0.328,315.3,-1.02,97.2,28.40209,0,860.4402,0.5,26.85,2.917,172,0.625,1.038,94.22508,3.318,52.21,60.68,33.84,35.83
"2016-03-14 11:20:00",226641,0.204,29.37,-1.219,100,30.69816,0,860.4191,0,27.74,2.909,176,0.612,1.034,102.963,3.355,52.21,60.62,33.84,35.82
"2016-03-14 11:30:00",226642,0.31,28.64,-1.167,100,24.37217,0,860.3854,0,27.73,2.91,170,0.612,1.071,81.88969,3.358,52.16,60.62,33.83,35.82
"2016-03-14 11:40:00",226643,0.08,32.45,-1.226,100,26.78226,0,860.2189,0,27.63,2.911,176,0.605,1.084,89.23634,3.328,52.16,60.62,33.83,35.82
"2016-03-14 11:50:00",226644,0.052,334.3,-1.537,100,27.43098,0,860.1135,0,28.02,2.908,192,0.613,1.065,90.66549,3.306,52.21,60.62,33.84,35.82
"2016-03-14 12:00:00",226645,0.006,349.5,-1.831,100,21.04601,0,860.1135,0,27.95,2.911,183,0.617,1.039,67.18882,3.185,52.21,60.62,33.84,35.82
"2016-03-14 12:10:00",226646,0,0,-1.91,100,27.98141,0,859.7302,0.5,27.72,2.911,190,0.613,1.028,94.7141,3.385,52.16,60.62,33.83,35.82
"2016-03-14 12:20:00",226647,0.035,32,-1.3,100,30.52124,0,859.4836,0,28.28,2.904,176,0.607,1.075,107.3148,3.516,52.16,60.62,33.83,35.82
"2016-03-14 12:30:00",226648,0.022,10.65,-1.424,100,29.20807,0,859.4078,0.5,28.67,2.901,172,0.606,1.074,100.4155,3.437,52.21,60.62,33.84,35.82
"2016-03-14 12:40:00",226649,0.099,14.71,-1.541,100,23.99866,0,859.4078,0,29.01,2.899,177,0.612,1.081,79.8578,3.327,52.16,60.62,33.83,35.82
"2016-03-14 12:50:00",226650,0,0,-1.676,100,23.2202,0,859.2203,0,29.22,2.896,188,0.615,1.051,77.05259,3.319,52.16,60.62,33.83,35.82
"2016-03-14 13:00:00",226651,0,0,-1.814,100,18.37643,0,859.0623,0.5,29.05,2.9,188,0.617,1.031,60.11133,3.271,52.21,60.62,33.84,35.82
"2016-03-14 13:10:00",226652,0,0,-1.873,100,17.94789,0,858.9421,0,29.63,2.893,177,0.618,1.025,60.23263,3.356,52.21,60.62,33.84,35.82
"2016-03-14 13:20:00",226653,0,0,-1.818,100,17.64515,0,858.8789,0.5,30.35,2.886,192,0.611,1.024,59.65264,3.38,52.21,60.62,33.84,35.82
"2016-03-14 13:30:00",226654,0,0,-1.583,100,19.10379,0,858.801,0,30.54,2.882,176,0.617,1.025,66.27902,3.469,52.16,60.62,33.83,35.82
"2016-03-14 13:40:00",226655,0,0,-1.589,100,18.93079,0,858.5629,0.5,30.8,2.881,177,0.623,1.024,64.97498,3.432,52.21,60.62,33.84,35.82
"2016-03-14 13:50:00",226656,0,0,-1.672,100,21.13251,0,858.4006,0,31.26,2.875,193,0.619,1.024,73.22763,3.465,52.16,60.56,33.83,35.81
"2016-03-14 14:00:00",226657,0,0,-1.488,100,20.90447,0,858.2321,0.5,31.55,2.873,193,0.615,1.024,71.34358,3.411,52.21,60.56,33.84,35.81
"2016-03-14 14:10:00",226658,0,0,-1.513,100,18.17985,0,858.112,0,31.2,2.877,189,0.619,1.024,60.35773,3.311,52.16,60.56,33.83,35.81
"2016-03-14 14:20:00",226659,0,0,-1.957,100,17.97148,0,858.1836,0,31.58,2.875,171,0.604,1.027,60.00518,3.333,52.21,60.56,33.84,35.81
"2016-03-14 14:30:00",226660,0,0,-2.088,100,18.8325,0,858.0151,0.5,31.88,2.872,190,0.618,1.034,64.03105,3.401,52.16,60.56,33.83,35.81
"2016-03-14 14:40:00",226661,0,0,-2.122,100,18.76567,0,857.7053,0,32.18,2.869,189,0.619,1.039,65.12661,3.472,52.21,60.56,33.84,35.81
"2016-03-14 14:50:00",226662,0,0,-1.945,100,14.73575,0,857.8613,0,31.99,2.87,191,0.617,1.044,51.889,3.522,52.16,60.56,33.83,35.81
"2016-03-14 15:00:00",226663,0,0,-2.028,100,14.00446,0,857.8339,0,32.08,2.87,174,0.614,1.051,47.11633,3.362,52.16,60.56,33.83,35.81
"2016-03-14 15:10:00",226664,0,0,-2.255,100,12.90361,0,858.0172,0.5,32.21,2.871,191,0.628,1.064,40.63779,3.147,52.16,60.56,33.83,35.81
"2016-03-14 15:20:00",226665,0,0,-2.451,100,11.63369,0,858.093,0,32.13,2.872,170,0.635,1.064,36.64604,3.144,52.16,60.56,33.83,35.81
"2016-03-14 15:30:00",226666,0,0,-2.462,100,14.65318,0,857.8907,0,31.89,2.874,176,0.633,1.066,48.55306,3.309,52.1,60.56,33.81,35.81
"2016-03-14 15:40:00",226667,0,0,-2.316,100,11.81455,0,857.8423,0,31.92,2.873,177,0.638,1.066,39.8076,3.371,52.16,60.56,33.83,35.81
"2016-03-14 15:50:00",226668,0,0,-2.401,100,10.59574,0,857.699,0,32.36,2.869,170,0.633,1.066,36.26316,3.427,52.16,60.56,33.83,35.81
"2016-03-14 16:00:00",226669,0,0,-2.246,100,12.87609,0,857.4715,0,32.18,2.869,194,0.635,1.066,43.92824,3.41,52.16,60.56,33.83,35.81
"2016-03-14 16:10:00",226670,0,0,-2.123,100,12.10155,0,857.4357,0,32.12,2.871,176,0.633,1.066,42.46877,3.516,52.16,60.56,33.83,35.81
"2016-03-14 16:20:00",226671,0,0,-2.224,100,9.451636,0,857.6063,0,32.07,2.871,176,0.634,1.066,31.81651,3.365,52.16,60.56,33.83,35.81
"2016-03-14 16:30:00",226672,0,0,-2.457,100,6.377103,0,857.8381,0,32.3,2.871,177,0.633,1.066,19.1172,2.985,52.16,60.56,33.83,35.81
"2016-03-14 16:40:00",226673,0,0,-2.69,100,4.843767,0,857.9202,0,32.15,2.873,177,0.623,1.067,12.22545,2.489,52.1,60.56,33.81,35.81
"2016-03-14 16:50:00",226674,0,0,-2.808,100,5.001032,0,857.9139,0,32.09,2.874,176,0.622,1.09,12.14206,2.427,52.16,60.56,33.83,35.81
"2016-03-14 17:00:00",226675,0,0,-2.904,100,4.588211,0,857.8571,0,32.45,2.87,171,0.642,1.097,11.5014,2.513,52.1,60.5,33.81,35.79
"2016-03-14 17:10:00",226676,0,0,-2.782,100,3.459834,0,857.6484,0,32.35,2.871,170,0.618,1.067,9.71971,2.792,52.16,60.5,33.83,35.79
"2016-03-14 17:20:00",226677,0,0,-2.85,100,2.130943,0,857.6505,0,32.34,2.872,170,0.595,1.054,5.576324,2.622,52.16,60.5,33.83,35.79
"2016-03-14 17:30:00",226678,0,0,-2.946,100,1.95402,0,857.5642,0,32.38,2.872,170,0.591,1.027,4.689268,2.411,52.16,60.5,33.83,35.79
"2016-03-14 17:40:00",226679,0,0,-2.969,100,1.171625,0,857.4209,0,32.24,2.873,170,0.591,1.023,3.138814,2.692,52.1,60.5,33.81,35.79
"2016-03-14 17:50:00",226680,0,0,-3.027,100,0.9003431,0,857.8192,0,32.23,2.874,170,0.591,1.023,2.130451,2.374,52.1,60.5,33.81,35.79
"2016-03-14 18:00:00",226681,0,0,-3.114,100,0.7076932,0,857.796,0,32.35,2.873,170,0.591,1.026,1.080389,1.527,52.1,60.5,33.81,35.79
"2016-03-14 18:10:00",226682,0,0,-3.189,100,0.3852997,0,857.621,0,32.28,2.874,170,0.591,1.046,0.09477096,0.142,52.16,60.5,33.83,35.79
"2016-03-14 18:20:00",226683,0,0,-3.251,100,0.2398316,0,857.6379,0,32.34,2.874,170,0.593,1.061,0,0,52.16,60.5,33.83,35.79
"2016-03-14 18:30:00",226684,0,0,-3.236,100,0.2359028,0,857.8002,0,32.19,2.875,174,0.597,1.069,0,0,52.16,60.5,33.83,35.79
"2016-03-14 18:40:00",226685,0,0,-3.18,100,0.1533431,0,857.6841,0,32.21,2.875,174,0.607,1.074,0,0,52.1,60.5,33.81,35.79
"2016-03-14 18:50:00",226686,0,0,-3.255,100,0.2359281,0,857.5244,0,32.45,2.872,191,0.631,1.076,0.003791395,0.016,52.1,60.5,33.81,35.79
"2016-03-14 19:00:00",226687,0,0,-3.269,100,0.2320035,0,857.7713,0.5,32.49,2.873,192,0.647,1.08,0.01137428,0.048,52.16,60.5,33.83,35.79
"2016-03-14 19:10:00",226688,0,0,-3.367,100,0.2359387,0,857.4446,0,32.39,2.874,192,0.643,1.038,0,0,52.1,60.5,33.81,35.79
"2016-03-14 19:20:00",226689,0,0,-3.265,100,0.1337009,0,857.5333,0,32.34,2.874,189,0.659,1.039,0.0985802,0.064,52.1,60.5,33.81,35.79
"2016-03-14 19:30:00",226690,0,0,-3.307,100,0.2280843,0,857.7363,0,32.44,2.873,192,0.666,1.049,0.03412525,0.145,52.1,60.5,33.81,35.79
"2016-03-14 19:40:00",226691,0,0,-3.332,100,0.2162931,0,857.7125,0,32.35,2.874,192,0.672,1.048,0.02654186,0.048,52.1,60.5,33.81,35.79
"2016-03-14 19:50:00",226692,0,0,-3.363,100,0.1887715,0,857.8537,0,32.27,2.875,192,0.675,1.069,0.007583791,0.032,52.1,60.5,33.81,35.79
"2016-03-14 20:00:00",226693,0,0,-3.372,100,0.2123723,0,857.9777,0,32.29,2.875,192,0.684,1.077,0.01896,0.064,52.1,60.5,33.81,35.79
"2016-03-14 20:10:00",226694,0,0,-3.477,100,0.2359744,0,857.975,0,32.36,2.875,189,0.694,1.065,0,0,52.1,60.5,33.81,35.79
"2016-03-14 20:20:00",226695,0,0,-3.496,100,0.2359769,0,857.9783,0,32.24,2.876,189,0.662,1.067,0,0,52.1,60.44,33.81,35.78
"2016-03-14 20:30:00",226696,0,0,-3.427,100,0.1140559,0,857.9791,0,32.24,2.876,192,0.642,1.068,0.09101104,0.064,52.1,60.44,33.81,35.78
"2016-03-14 20:40:00",226697,0,0,-3.544,100,0.2359781,0,857.9688,0,32.28,2.876,192,0.64,1.07,0.007584258,0.032,52.1,60.44,33.81,35.78
"2016-03-14 20:50:00",226698,0,0,-3.547,100,0.2281122,0,857.9603,0,32.16,2.877,192,0.644,1.07,0,0,52.1,60.44,33.81,35.78
"2016-03-14 21:00:00",226699,0,0,-3.634,100,0.2359781,0,857.8444,0,32.18,2.878,190,0.649,1.068,0,0,52.1,60.44,33.81,35.78
"2016-03-14 21:10:00",226700,0,0,-3.709,100,0.2359781,0,857.7285,0,32.15,2.878,190,0.635,1.068,0,0,52.1,60.44,33.81,35.78
"2016-03-14 21:20:00",226701,0,0,-3.77,100,0.2359781,0,857.7242,0,32.22,2.878,191,0.636,1.068,0,0,52.05,60.44,33.8,35.78
"2016-03-14 21:30:00",226702,0,0,-3.851,100,0.2359781,0,857.7264,0,32.17,2.879,192,0.636,1.068,0,0,52.1,60.44,33.81,35.78
"2016-03-14 21:40:00",226703,0,0,-3.895,100,0.2359781,0,857.7137,0,32.21,2.879,191,0.64,1.068,0,0,52.1,60.44,33.81,35.78
"2016-03-14 21:50:00",226704,0,0,-4.016,100,0.25171,0,857.7305,0,32.21,2.879,191,0.642,1.07,0,0,52.1,60.44,33.81,35.78
"2016-03-14 22:00:00",226705,0,0,-3.992,100,0.2123803,0,857.6484,0,32.16,2.88,192,0.639,1.068,0.01516852,0.048,52.1,60.44,33.81,35.78
"2016-03-14 22:10:00",226706,0,0,-4.139,100,0.2359781,0,857.6526,0,32.16,2.88,192,0.636,1.068,0,0,52.1,60.44,33.81,35.78
"2016-03-14 22:20:00",226707,0,0,-4.16,100,0.2359781,0,857.5704,0,32.11,2.881,189,0.636,1.068,0.01516852,0.064,52.1,60.44,33.81,35.78
"2016-03-14 22:30:00",226708,0,0,-4.116,100,0.04326266,0,857.4777,0,31.98,2.882,189,0.635,1.069,0.1516852,0.048,52.05,60.44,33.8,35.78
"2016-03-14 22:40:00",226709,0,0,-4.208,100,0.1061902,0,857.4798,0,32.05,2.882,189,0.636,1.072,0.04171343,0.016,52.1,60.44,33.81,35.78
"2016-03-14 22:50:00",226710,0,0,-4.222,100,0.08259235,0,857.4735,0,32.05,2.882,191,0.636,1.072,0.05308982,0,52.1,60.44,33.81,35.78
"2016-03-14 23:00:00",226711,0,0,-4.297,100,0.1533858,0,857.4735,0,32.08,2.882,192,0.636,1.07,0.007584261,0,52.1,60.44,33.81,35.78
"2016-03-14 23:10:00",226712,0,0,-4.345,98.4,0.1494528,0,857.4187,0,31.98,2.883,191,0.637,1.074,0,0,52.1,60.44,33.81,35.78
"2016-03-14 23:20:00",226713,0,0,-4.318,97.9,0.05506156,0,857.2712,0,31.93,2.883,192,0.636,1.085,0.05308982,0,52.05,60.44,33.8,35.78
"2016-03-14 23:30:00",226714,0,0,-4.358,97.4,0.1533858,0,857.3575,0,31.95,2.884,192,0.636,1.101,0.00379213,0,52.05,60.44,33.8,35.78
"2016-03-14 23:40:00",226715,0,0,-4.514,95.2,0.1927155,0,857.2986,0,31.84,2.886,191,0.636,1.108,0,0,52.05,60.44,33.8,35.78
"2016-03-14 23:50:00",226716,0,0,-4.618,94.6,0,0,857.2206,0,31.86,2.886,190,0.636,1.106,0,0,52.05,60.44,33.8,35.78
